Location: Kra?nica
(53.4833°N, 14.6167°E)
Time: 17:30:57
(UTC+00:00)

Resurs 1-4 Rocket - Pass Details

Date: 23 May 2024
Orbit: 798 x 814 km, 98.7° (Epoch: 13 June)

Event Time Altitude Azimuth Distance (km) Brightness Sun altitude
Rises 00:23:46 0° 20° (NNE) 3,320 7.4 -13.6°
Reaches altitude 10° 00:26:18 10° 29° (NNE) 2,385 6.0 -13.5°
Maximum altitude 00:31:09 37° 96° (E) 1,239 3.2 -13.2°
Drops below altitude 10° 00:35:58 10° 163° (SSE) 2,369 4.1 -12.9°
Enters shadow 00:36:00 10° 163° (SSE) 2,382 4.1 -12.9°
